[[{"header":{"parameterUnit":"m.s-1","parameterCategory":1,"la1":30.2991,"la2":30.254,"lo1":-89.0895,"lo2":-89.0444,"dy":0.0017,"dx":0.0017,"nx":28,"ny":28,"refTime":"2024-03-23T21:00:00:Z","depth":0,"parameterNumber":2,"parameterNumberName":"U-component_of_WINDS"},"data":[0,0,0,0,0,0,0,0,0,0,0,0,0,0,0,0,0,0,0,0,0,0,0,0,0,0,0,0,0,0,0,0,0,0,0,0,0,0,0,0,0,0,0,0,0,0,0,0,0,0,0,0,0,0,0,0,0,0,-2.2084,-2.2085,0,-2.2141,-2.2141,-2.2142,-2.2059,-2.2056,-2.2053,-2.205,-2.2111,-2.2116,-2.212,0,0,0,0,0,0,0,0,0,0,0,0,0,-2.1907,-2.1911,-2.2084,-2.2085,-2.2086,-2.214,-2.2141,-2.2142,-2.2059,-2.2056,-2.2052,-2.2049,-2.211,-2.2115,-2.212,0,0,0,0,0,0,0,0,0,0,0,0,0,-2.1976,-2.1912,-2.2084,-2.2051,-2.2049,-2.214,-2.2141,-2.2142,-2.206,-2.2056,-2.2051,-2.2047,-2.2108,-2.2115,-2.2121,-2.2249,0,0,-2.2141,-2.2144,0,0,0,0,0,0,0,0,-2.1972,-2.1983,-2.2055,-2.2053,-2.2051,-2.2088,-2.2101,-2.2178,-2.2061,-2.2056,-2.205,-2.2045,-2.2107,-2.2114,-2.2134,-2.2252,-2.2255,-2.2142,-2.2146,-2.2148,-2.215,0,0,0,0,0,0,0,-2.1968,-2.198,-2.2107,-2.2056,-2.2054,-2.2034,-2.2039,-2.2115,-2.2106,-2.2056,-2.205,-2.2058,-2.2105,-2.2128,-2.2135,-2.2255,-2.2141,-2.2147,-2.2151,-2.2154,-2.248,-2.2485,0,0,0,0,0,0,-2.1966,-2.1976,-2.2105,-2.2108,-2.2,-2.2041,-2.2046,-2.2081,-2.2105,-2.2104,-2.2061,-2.2054,-2.2119,-2.2127,-2.2137,-2.2288,-2.2148,-2.2154,-2.2158,-2.2475,-2.2481,-2.2486,0,0,0,0,0,0,-2.1963,-2.1979,-2.2103,-2.2041,-2.2055,-2.2048,-2.2088,-2.2084,-2.2106,-2.2109,-2.2107,-2.2086,-2.2116,-2.2128,-2.2221,-2.2289,-2.2157,-2.2163,-2.247,-2.2477,-2.2484,-2.2592,0,0,0,0,0,0,-2.1958,-2.1978,-2.2026,-2.2042,-2.2059,-2.2186,-2.2092,-2.2088,-2.2118,-2.2108,-2.2131,-2.2131,-2.2113,-2.2212,-2.2228,-2.2296,-2.2168,-2.2464,-2.2473,-2.2482,-2.2583,-2.2602,-2.2619,0,0,0,0,0,-2.1952,-2.2056,-2.2029,-2.2045,-2.2119,-2.219,-2.22,-2.2176,-2.2123,-2.2172,-2.2173,-2.213,-2.2279,-2.2222,-2.2239,-2.231,-2.2459,-2.247,-2.2481,-2.2575,-2.2599,-2.2619,0,0,0,0,0,0,-2.205,-2.2057,-2.2028,-2.214,-2.2165,-2.2176,-2.2237,-2.2202,-2.2244,-2.2234,-2.2203,-2.2209,-2.231,-2.2319,-2.2256,-2.2435,-2.236,-2.2375,-2.2426,-2.2449,-2.2466,-2.2463,-2.2174,0,0,0,0,0,-2.2084,-2.214,-2.2144,-2.2242,-2.2256,-2.2245,-2.2275,-2.2254,-2.228,-2.229,-2.2298,-2.2325,-2.2377,-2.2413,-2.2462,-2.2583,-2.2587,-2.264,-2.2658,-2.2673,-2.2687,-2.2751,-2.2775,-2.2522,-2.2521,-2.2521,0,0,-2.2156,-2.2167,-2.2205,-2.2262,-2.2279,-2.2339,-2.2254,-2.2322,-2.2366,-2.2301,-2.239,-2.2396,-2.2424,-2.2532,-2.258,-2.2543,-2.2757,-2.2686,-2.2698,-2.2704,-2.2765,-2.2789,-2.281,-2.2529,-2.2527,-2.2526,0,0,-2.2318,-2.2331,-2.2414,-2.2432,-2.2458,-2.245,-2.247,-2.2486,-2.2487,-2.2576,-2.2528,-2.258,-2.2671,-2.2693,-2.2716,-2.2883,-2.2846,-2.29,-2.2996,-2.3059,-2.3079,-2.3097,-2.3157,-2.3179,-2.2913,-2.2913,-2.2914,0,-2.2404,-2.2492,-2.2462,-2.2532,-2.2559,-2.25,-2.2584,-2.2604,-2.2645,-2.2665,-2.2622,-2.2734,-2.2749,-2.2861,-2.2902,-2.2922,-2.2944,-2.2898,-2.3078,-2.3096,-2.3112,-2.3169,-2.3192,-2.292,-2.2919,-2.2918,-2.2918,0,-2.2597,-2.2659,-2.2723,-2.2762,-2.2796,-2.2873,-2.2855,-2.2893,-2.2868,-2.2864,-2.2955,-2.2969,-2.302,-2.3044,-2.3022,-2.3153,-2.3129,-2.3083,-2.3008,-2.3143,-2.3196,-2.3218,-2.2929,-2.2927,-2.2925,-2.2923,0,0,-2.2826,-2.2845,-2.287,-2.2886,-2.291,-2.2957,-2.3031,-2.3078,-2.3112,-2.3141,-2.3203,-2.328,-2.3237,-2.3263,-2.3242,-2.3297,-2.3429,-2.3244,-2.3244,-2.3279,-2.3576,-2.3612,-2.3638,-2.3403,-2.3407,-2.341,-2.3573,0,-2.2988,-2.3115,-2.3089,-2.3213,-2.327,-2.3213,-2.3278,-2.3299,-2.3297,-2.3344,-2.3341,-2.3397,-2.3335,-2.335,-2.3402,-2.3403,-2.3489,-2.339,-2.3462,-2.3465,-2.3459,-2.3665,-2.3704,-2.3858,-2.3594,-2.3598,-2.36,0,-2.3195,-2.3231,-2.3361,-2.3374,-2.3396,-2.3455,-2.3495,-2.3541,-2.3564,-2.3558,-2.3586,-2.3554,-2.3628,-2.355,-2.3651,-2.3584,-2.3612,-2.3616,-2.3621,-2.3629,-2.3542,-2.368,-2.3906,-2.393,-2.3633,-2.363,-2.3628,0,-2.335,-2.343,-2.3518,-2.3534,-2.3551,-2.3594,-2.3603,-2.3621,-2.3651,-2.3686,-2.3705,-2.375,-2.3775,-2.3809,-2.379,-2.3735,-2.3895,-2.3815,-2.3893,-2.3894,-2.3932,-2.393,-2.4167,-2.3947,-2.3946,-2.3946,-2.3945,0,-2.3535,-2.3617,-2.3588,-2.3643,-2.3732,-2.3701,-2.3791,-2.3794,-2.381,-2.3864,-2.3818,-2.387,-2.384,-2.389,-2.3875,-2.3962,-2.3973,-2.3971,-2.3966,-2.3976,-2.3977,-2.3995,-2.3985,-2.3952,-2.3951,-2.3949,-2.3948,0,-2.3725,-2.3708,-2.38,-2.3808,-2.3811,-2.3878,-2.3884,-2.3935,-2.3927,-2.3997,-2.4011,-2.4,-2.4056,-2.4039,-2.41,-2.409,-2.42,-2.4181,-2.4193,-2.4188,-2.4268,-2.4261,-2.4527,-2.456,-2.4317,-2.4319,-2.4321,0,-2.3845,-2.3907,-2.392,-2.3952,-2.3964,-2.4017,-2.4047,-2.4017,-2.405,-2.4079,-2.4127,-2.4178,-2.4218,-2.431,-2.4308,-2.4354,-2.4337,-2.4426,-2.4344,-2.4352,-2.434,-2.4337,-2.4343,-2.4444,-2.4447,-2.4449,-2.4451,0,-2.4061,-2.4049,-2.4093,-2.4134,-2.417,-2.4201,-2.4228,-2.4257,-2.4229,-2.4269,-2.4324,-2.4355,-2.4416,-2.4468,-2.4509,-2.4519,-2.4482,-2.4476,-2.4497,-2.4509,-2.4514,-2.4513,-2.4239,-2.4471,-2.4469,-2.4468,-2.4467,-2.4466,-2.4221,-2.4272,-2.4289,-2.434,-2.4356,-2.4382,-2.443,-2.4427,-2.4473,-2.4519,-2.4499,-2.4563,-2.4583,-2.4634,-2.4649,-2.47,-2.4665,-2.4695,-2.4703,-2.4712,-2.4722,-2.4504,-2.4707,-2.4706,-2.4706,-2.4705,-2.4705,0,-2.4435,-2.4442,-2.4489,-2.4527,-2.4566,-2.4524,-2.4551,-2.4587,-2.4644,-2.4665,-2.4704,-2.4768,-2.4818,-2.4818,-2.4864,-2.4904,-2.4888,-2.4918,-2.4916,-2.4919,-2.475,-2.4728,-2.493,-2.493,-2.493,-2.493,-2.493,-2.493,-2.4552,-2.4637,-2.4627,-2.472,-2.4726,-2.4788,-2.4807,-2.4831,-2.4847,-2.492,-2.496,-2.4959,-2.4972,-2.5019,-2.5062,-2.5061,-2.5081,-2.5117,-2.511,-2.4953,-2.4931,-2.4909,-2.4889,-2.5121,-2.5122,-2.5275,-2.5276,-2.5277]},{"header":{"parameterUnit":"m.s-1","parameterCategory":1,"la1":30.2991,"la2":30.254,"lo1":-89.0895,"lo2":-89.0444,"dy":0.0017,"dx":0.0017,"nx":28,"ny":28,"refTime":"2024-03-23T21:00:00:Z","depth":0,"parameterNumber":3,"parameterNumberName":"V-component_of_WINDS"},"data":[0,0,0,0,0,0,0,0,0,0,0,0,0,0,0,0,0,0,0,0,0,0,0,0,0,0,0,0,0,0,0,0,0,0,0,0,0,0,0,0,0,0,0,0,0,0,0,0,0,0,0,0,0,0,0,0,0,0,-4.1456,-4.1457,0,-4.1513,-4.1514,-4.1514,-4.1443,-4.144,-4.1438,-4.1435,-4.1492,-4.1495,-4.1499,0,0,0,0,0,0,0,0,0,0,0,0,0,-4.1281,-4.1285,-4.1456,-4.1457,-4.1457,-4.1513,-4.1514,-4.1514,-4.1443,-4.144,-4.1437,-4.1434,-4.149,-4.1495,-4.15,0,0,0,0,0,0,0,0,0,0,0,0,0,-4.135,-4.1286,-4.1456,-4.1429,-4.1427,-4.1513,-4.1514,-4.1515,-4.1444,-4.144,-4.1436,-4.1433,-4.1489,-4.1494,-4.15,-4.1615,0,0,-4.1518,-4.1521,0,0,0,0,0,0,0,0,-4.1346,-4.1356,-4.1432,-4.1431,-4.1429,-4.1467,-4.1473,-4.1548,-4.1445,-4.1437,-4.1435,-4.1431,-4.1486,-4.1492,-4.1511,-4.1618,-4.162,-4.1519,-4.1522,-4.1525,-4.1527,0,0,0,0,0,0,0,-4.1341,-4.1353,-4.1478,-4.1433,-4.1431,-4.1412,-4.1418,-4.1487,-4.1483,-4.1438,-4.1433,-4.1441,-4.1485,-4.1506,-4.1512,-4.1621,-4.1519,-4.1524,-4.1527,-4.153,-4.1822,-4.1826,0,0,0,0,0,0,-4.134,-4.135,-4.1477,-4.148,-4.1377,-4.1419,-4.1425,-4.1459,-4.1482,-4.1482,-4.1444,-4.1437,-4.1498,-4.1505,-4.1514,-4.1649,-4.1525,-4.153,-4.1534,-4.1818,-4.1823,-4.1827,0,0,0,0,0,0,-4.1337,-4.1352,-4.1474,-4.1414,-4.1428,-4.1426,-4.1464,-4.1462,-4.1483,-4.1487,-4.1485,-4.1467,-4.1495,-4.1506,-4.159,-4.165,-4.1533,-4.1538,-4.1813,-4.1819,-4.1825,-4.192,0,0,0,0,0,0,-4.1332,-4.1351,-4.1396,-4.1415,-4.1431,-4.1551,-4.1468,-4.1466,-4.1494,-4.1485,-4.1508,-4.1508,-4.1493,-4.1582,-4.1596,-4.1656,-4.1543,-4.1807,-4.1816,-4.1823,-4.1912,-4.1929,-4.1944,0,0,0,0,0,-4.1326,-4.142,-4.1399,-4.1414,-4.1487,-4.1555,-4.1564,-4.1545,-4.1499,-4.1543,-4.1545,-4.1507,-4.1641,-4.1591,-4.1606,-4.1669,-4.1803,-4.1813,-4.1822,-4.1905,-4.1926,-4.1943,0,0,0,0,0,0,-4.1408,-4.1423,-4.1399,-4.1502,-4.1528,-4.1543,-4.1598,-4.1569,-4.1607,-4.1598,-4.1572,-4.1578,-4.1668,-4.1676,-4.1621,-4.178,-4.1714,-4.1727,-4.1771,-4.1791,-4.1807,-4.1803,-4.1548,0,0,0,0,0,-4.1438,-4.1493,-4.1502,-4.1593,-4.1607,-4.16,-4.1629,-4.1612,-4.1637,-4.1648,-4.1656,-4.1681,-4.1728,-4.176,-4.1804,-4.1912,-4.1915,-4.1963,-4.1979,-4.1992,-4.2003,-4.2059,-4.208,-4.1858,-4.1858,-4.1858,0,0,-4.1501,-4.1516,-4.1552,-4.161,-4.1627,-4.1683,-4.161,-4.1672,-4.1713,-4.1657,-4.1737,-4.1744,-4.177,-4.1866,-4.1909,-4.1876,-4.2065,-4.2004,-4.2014,-4.2019,-4.2071,-4.2092,-4.2111,-4.1865,-4.1864,-4.1863,0,0,-4.1645,-4.1662,-4.1739,-4.1758,-4.1785,-4.178,-4.1799,-4.1817,-4.182,-4.19,-4.1859,-4.1906,-4.1989,-4.2008,-4.2029,-4.2178,-4.2144,-4.2193,-4.2276,-4.2331,-4.2349,-4.2364,-4.2416,-4.2435,-4.2204,-4.2204,-4.2204,0,-4.1719,-4.1803,-4.1781,-4.1847,-4.1872,-4.1824,-4.1901,-4.192,-4.1961,-4.1979,-4.1941,-4.2043,-4.2057,-4.2157,-4.2193,-4.2212,-4.2231,-4.219,-4.2348,-4.2363,-4.2377,-4.2427,-4.2446,-4.221,-4.2209,-4.2209,-4.2208,0,-4.1893,-4.1951,-4.2009,-4.205,-4.2082,-4.2153,-4.2141,-4.2176,-4.2156,-4.2154,-4.2235,-4.225,-4.2295,-4.2317,-4.2299,-4.2414,-4.2393,-4.2352,-4.2286,-4.2405,-4.245,-4.2469,-4.2218,-4.2216,-4.2214,-4.2213,0,0,-4.2091,-4.2118,-4.2139,-4.2157,-4.2183,-4.2227,-4.2294,-4.2339,-4.2369,-4.2398,-4.2453,-4.2523,-4.2485,-4.2509,-4.2491,-4.254,-4.2655,-4.2493,-4.2493,-4.2522,-4.2781,-4.2811,-4.2834,-4.2632,-4.2636,-4.2638,-4.2779,0,-4.2234,-4.2352,-4.2333,-4.2446,-4.2499,-4.2453,-4.2511,-4.2533,-4.2532,-4.2576,-4.2574,-4.2624,-4.2571,-4.2585,-4.2631,-4.2631,-4.2706,-4.2621,-4.2682,-4.2684,-4.2677,-4.2858,-4.289,-4.3022,-4.2797,-4.28,-4.2802,0,-4.2417,-4.2453,-4.2571,-4.2588,-4.2609,-4.2662,-4.27,-4.2743,-4.2766,-4.2762,-4.2787,-4.2761,-4.2826,-4.2758,-4.2847,-4.2789,-4.2813,-4.2816,-4.2821,-4.2826,-4.2751,-4.2867,-4.3064,-4.3084,-4.283,-4.2828,-4.2826,0,-4.2549,-4.2626,-4.2707,-4.2723,-4.2744,-4.2782,-4.2793,-4.2812,-4.2839,-4.2872,-4.2889,-4.293,-4.2952,-4.2983,-4.2967,-4.2919,-4.3058,-4.2989,-4.3056,-4.3056,-4.3088,-4.3086,-4.3291,-4.3103,-4.3103,-4.3103,-4.3102,0,-4.271,-4.2785,-4.2766,-4.2816,-4.2897,-4.2874,-4.2954,-4.2959,-4.2976,-4.3024,-4.2986,-4.3032,-4.3008,-4.3052,-4.304,-4.3115,-4.3125,-4.3123,-4.3119,-4.3126,-4.3127,-4.3142,-4.3132,-4.3108,-4.3107,-4.3106,-4.3105,0,-4.2872,-4.2863,-4.2947,-4.296,-4.2965,-4.3024,-4.3034,-4.308,-4.3075,-4.3137,-4.315,-4.3144,-4.3193,-4.318,-4.3234,-4.3225,-4.332,-4.3304,-4.3313,-4.3309,-4.3376,-4.3369,-4.3597,-4.3625,-4.342,-4.3422,-4.3424,0,-4.2976,-4.3031,-4.305,-4.308,-4.3093,-4.3142,-4.317,-4.3149,-4.3179,-4.3208,-4.3249,-4.3295,-4.3331,-4.3412,-4.3411,-4.3452,-4.3436,-4.3513,-4.3442,-4.3448,-4.3437,-4.3434,-4.3439,-4.3528,-4.353,-4.3532,-4.3534,0,-4.316,-4.3153,-4.3195,-4.3235,-4.3269,-4.3299,-4.3326,-4.3352,-4.3333,-4.3368,-4.3418,-4.3446,-4.35,-4.3546,-4.3583,-4.3592,-4.3559,-4.3556,-4.3573,-4.3582,-4.3584,-4.3583,-4.3351,-4.3551,-4.3549,-4.3548,-4.3547,-4.3546,-4.3296,-4.3343,-4.3363,-4.341,-4.3428,-4.3453,-4.3496,-4.3497,-4.3539,-4.3582,-4.3566,-4.3624,-4.3642,-4.3688,-4.3702,-4.3745,-4.3716,-4.3741,-4.3748,-4.3754,-4.3762,-4.3577,-4.3752,-4.3751,-4.3751,-4.375,-4.375,0,-4.3478,-4.3488,-4.3532,-4.357,-4.3607,-4.3573,-4.3601,-4.3633,-4.3684,-4.3705,-4.3741,-4.3798,-4.3841,-4.3843,-4.3884,-4.3918,-4.3904,-4.3929,-4.3927,-4.3929,-4.3787,-4.3767,-4.394,-4.394,-4.394,-4.394,-4.394,-4.394,-4.3577,-4.3655,-4.3649,-4.3734,-4.3743,-4.3799,-4.3818,-4.384,-4.3856,-4.3922,-4.3958,-4.3959,-4.3972,-4.4012,-4.405,-4.405,-4.4066,-4.4097,-4.4091,-4.3958,-4.3939,-4.3921,-4.3903,-4.4101,-4.4101,-4.4229,-4.423,-4.4231]}]]